This demonstration page uses our WeatherBlox Daily Observations layout. Learn more.

Left ArrowRight Arrow

38.89511, -77.03637

Hourly Observations for July 18, 2015

Temp ( °F °C ) Dew Point ( °F °C ) Humidity (%) Winds ( mph kmh ) Pressure ( in mb ) Visibility ( mi km ) Precip ( " mm )
12:52 am 00:52 Cloudy 79 26.1 70 21.1 74 74 S 12 19 30.00 1016 10 16 N/A
1:52 am 01:52 Partly Cloudy 78 25.6 71 21.7 79 79 S 13 20 29.99 1016 10 16 N/A
2:27 am 02:27 Mostly Cloudy 79 26 72 22 79 79 S 12 19 29.97 1015 10 16 N/A
2:52 am 02:52 Cloudy 78 25.6 71 21.7 79 79 S 9 15 29.98 1015 10 16 N/A
3:52 am 03:52 Cloudy 78 25.6 70 21.1 76 76 S 10 17 29.97 1015 10 16 N/A
4:52 am 04:52 Partly Cloudy 77 25 70 21.1 79 79 S 8 13 29.98 1015 10 16 N/A
5:52 am 05:52 Partly Cloudy 77 25 70 21.1 79 79 SSW 10 17 29.98 1015 10 16 N/A
6:13 am 06:13 Partly Cloudy 77 25 70 21 79 79 S 9 15 30.00 1016 10 16 N/A
6:52 am 06:52 Partly Cloudy 77 25 71 21.7 82 82 S 10 17 29.98 1015 10 16 N/A
7:52 am 07:52 Mostly Cloudy 79 26.1 72 22.2 79 79 S 9 15 29.97 1015 10 16 N/A
8:52 am 08:52 Mostly Cloudy 81 27.2 72 22.2 74 74 SSW 7 11 29.98 1015 10 16 N/A
9:44 am 09:44 Cloudy with Light Rain 81 27 72 22 74 74 W 9 15 30.00 1016 10 16 N/A
9:52 am 09:52 Cloudy with Rain 79 26.1 72 22.2 79 79 W 6 9 30.01 1016 4 6 N/A
10:11 am 10:11 Cloudy 81 27 72 22 74 74 VRB 5 7 30.00 1016 10 16 0.02 0.51
10:19 am 10:19 Cloudy with Light Rain 81 27 72 22 74 74 N 6 9 30.00 1016 10 16 0.02 0.51
10:52 am 10:52 Cloudy with Light Rain 80 26.7 73 22.8 79 79 N N/A 30.00 1016 7 11 0.04 1.02
11:04 am 11:04 Cloudy 81 27 73 23 79 79 N N/A 30.00 1016 10 16 N/A
11:40 am 11:40 Cloudy with Light Rain 81 27 73 23 79 79 N N/A 30.00 1016 10 16 N/A
11:52 am 11:52 Mostly Cloudy 82 27.8 73 22.8 74 74 N N/A 29.98 1015 10 16 N/A
12:52 pm 12:52 Cloudy 82 27.8 74 23.3 77 77 S 7 11 29.97 1015 10 16 N/A
1:52 pm 13:52 Mostly Cloudy 85 29.4 74 23.3 70 70 SSW 8 13 29.96 1014 10 16 N/A
2:52 pm 14:52 Mostly Cloudy 85 29.4 75 23.9 72 72 S 12 19 29.95 1014 10 16 N/A
3:52 pm 15:52 Partly Cloudy 86 30 75 23.9 70 70 S 8 13 29.93 1014 10 16 N/A
4:52 pm 16:52 Partly Cloudy 87 30.6 74 23.3 65 65 S 9 15 29.93 1013 10 16 N/A
5:52 pm 17:52 Mostly Sunny 87 30.6 74 23.3 65 65 S 10 17 29.92 1013 10 16 N/A
6:52 pm 18:52 Partly Cloudy 87 30.6 73 22.8 63 63 S 10 17 29.91 1013 10 16 N/A
7:52 pm 19:52 Partly Cloudy 85 29.4 74 23.3 70 70 S 7 11 29.90 1012 10 16 N/A
8:52 pm 20:52 Partly Cloudy 83 28.3 74 23.3 74 74 S 7 11 29.91 1013 10 16 N/A
9:52 pm 21:52 Partly Cloudy 83 28.3 75 23.9 77 77 S 7 11 29.94 1014 10 16 N/A
10:52 pm 22:52 Partly Cloudy 82 27.8 74 23.3 77 77 S 6 9 29.93 1014 10 16 N/A
11:52 pm 23:52 Mostly Clear 81 27.2 74 23.3 79 79 SW 7 11 29.93 1014 10 16 N/A

Powered by AerisWeather